Location: Livorno
(43.5500°N, 10.3170°E)
Time: 03:53:05
(UTC+02:00)

ISS - Visible Passes

Search period start: 17 May 2026 00:00
Search period end: 27 May 2026 00:00
Orbit: 414 x 424 km, 51.6° (Epoch: 16 May)

Date Brightness Start Highest point End Pass type
(mag) Time Alt. Az. Time Alt. Az. Time Alt. Az.
17 May -1.7 00:13:23 10° NW 00:15:06 27° NW 00:15:06 27° NW visible
17 May -1.3 21:48:56 10° NW 21:51:30 20° N 21:54:04 10° NE visible
17 May -2.6 23:25:46 10° NW 23:28:56 38° NNE 23:29:02 38° NNE visible
18 May -2.0 22:38:09 10° NW 22:41:08 29° NNE 22:42:57 18° ENE visible
19 May -1.3 00:14:48 10° WNW 00:15:53 19° WNW 00:15:53 19° WNW visible
19 May -1.7 21:50:29 10° NW 21:53:18 24° NNE 21:56:05 10° ENE visible
19 May -3.2 23:27:06 10° WNW 23:29:49 56° NW 23:29:49 56° NW visible
20 May -3.2 22:39:26 10° NW 22:42:43 53° NNE 22:43:46 36° E visible
21 May -0.8 00:16:38 10° W 00:16:42 10° W 00:16:42 10° W visible
21 May -2.6 21:51:47 10° NW 21:54:56 37° NNE 21:57:44 12° E visible
21 May -2.2 23:28:37 10° WNW 23:30:40 28° W 23:30:40 28° W visible
22 May -3.7 22:40:46 10° WNW 22:44:04 61° SW 22:44:40 50° SSE visible
23 May -3.8 21:53:01 10° WNW 21:56:22 82° NNE 21:58:41 18° ESE visible
23 May -1.1 23:30:57 10° W 23:31:37 12° WSW 23:31:37 12° WSW visible
24 May -2.2 22:42:30 10° W 22:45:10 22° SW 22:45:41 22° SSW visible
25 May -2.8 21:54:26 10° WNW 21:57:33 37° SW 21:59:47 16° SSE visible
